Torna al catalogo

FENGYUN 1C DEB

AttivoSSO
NORAD 35208·DEBRIS·🇨🇳 China

Lanciato May 10, 1999 da Taiyuan Satellite Launch Center

Loading…

Prossimi Passaggi (prossime 24 ore)

TLE

In scadenzaSource: Space-Track

Epoca: Sep 8, 2026, 07:14 UTC

1 35208U 99025DPQ 26251.30144074  .00000659  00000-0  45093-3 0  9996
2 35208  98.8843 268.0963 0105866 125.8693 235.2359 14.00392229943359

Traccia FENGYUN 1C DEB in tempo reale con AllMySat

Download on the App Store